Location: Lourdes
(43.1000°N, 0.0500°W)
Time: 00:26:00
(UTC+00:00)

Cosmos 773 Rocket - Pass Details

Date: 16 April 2021
Orbit: 745 x 777 km, 74.1° (Epoch: 10 May)

Event Time Altitude Azimuth Distance (km) Brightness Sun altitude
Rises 02:57:35 0° 325° (NW) 3,257 7.3 -23.1°
Reaches altitude 10° 03:00:30 10° 310° (NW) 2,329 6.4 -22.7°
Enters shadow 03:01:30 14° 301° (WNW) 2,070 6.0 -22.6°
